Regional Weather Roundup
Issued by NWS

Home | Current Version | Previous Version | Graphics & Text | Print | Product List | Glossary On
Versions: 1 2 3 4 5 6 7 8 9 10 11 12 13 14 15 16 17 18 19 20 21 22 23 24 25 26 27 28 29 30 31 32 33 34 35 36 37 38 39 40 41 42 43 44 45 46 47 48 49 50
000
ASUS43 KDTX 262201
RWRMI
MICHIGAN HOURLY REGIONAL WEATHER ROUNDUP
NATIONAL WEATHER SERVICE DETROIT/PONTIAC MI
600 PM EDT FRI AUG 26 2016

NOTE: "FAIR" INDICATES FEW OR NO CLOUDS BELOW 12,000 FEET WITH NO
SIGNIFICANT WEATHER AND/OR OBSTRUCTION TO VISIBILITY.

MIZ047>049-052>055-059>063-066>070-074>076-081>083-262300-
SOUTHEAST LOWER MICHIGAN

CITY           SKY/WX    TMP DP  RH WIND       PRES   REMARKS
ADRIAN         SUNNY     83  63  50 SW3       30.12S
ALMA           SUNNY     80  63  57 W6G16     30.12S
ANN ARBOR      SUNNY     84  62  47 W7        30.11F
BAD AXE        SUNNY     78  59  51 W7        30.11F
CARO           SUNNY     79  63  57 SW8       30.11S
DETROIT CITY   SUNNY     85  59  41 NW5       30.10F
DETROIT        MOSUNNY   85  61  44 NW6       30.10F
FLINT          SUNNY     84  61  45 NW9       30.12S
GROSSE ILE     SUNNY     79  68  67 S7        30.10S
HILLSDALE      SUNNY     80  60  50 CALM      30.14R
HOWELL         SUNNY     81  60  47 W8        30.13R

CITY           SKY/WX    TMP DP  RH WIND       PRES   REMARKS
JACKSON        SUNNY     81  62  52 NW3       30.13S
LAMBERTVILLE   SUNNY     85  61  44 N3        30.12S
LANSING        SUNNY     81  59  47 W8        30.13S
LAPEER         FAIR      81  58  45 NW8       30.12S
MASON          SUNNY     81  61  49 W9        30.13S
MONROE         SUNNY     85  67  55 CALM      30.10S
MT. CLEMENS    MOSUNNY   80  68  65 E7        30.09S
PONTIAC        MOSUNNY   82  59  45 NW9       30.11F
PORT HURON     SUNNY     81  63  54 W3        30.11S
TRI CITIES     SUNNY     80  63  55 W13       30.11S
MIDLAND        FAIR      80  62  55 SW7       30.10R
TROY           SUNNY     85  55  35 NW8       30.12S
SAGINAW HB     SUNNY     79  63  57 SW7       30.11R
$$
MIZ043>046-050>051-056>058-064>065-071>073-077>080-262300-
SOUTHWEST LOWER MICHIGAN

CITY           SKY/WX    TMP DP  RH WIND       PRES   REMARKS
BATTLE CREEK   SUNNY     79  63  57 W6        30.14R
BENTON HARBOR  SUNNY     74  62  66 VRB6      30.13R
BIG RAPIDS     SUNNY     76  51  41 NW8       30.13S
COLDWATER      SUNNY     80  60  49 CALM      30.13S
FREMONT        FAIR      74  52  45 W7        30.13S
HOLLAND        SUNNY     75  61  61 NW6       30.15R
GRAND RAPIDS   MOSUNNY   80  59  48 VRB6      30.13S
IONIA          FAIR      80  59  48 W8        30.12R
KALAMAZOO      SUNNY     83  60  45 CALM      30.13R
LUDINGTON      MOSUNNY   70  56  60 W6        30.14S
MARSHALL       SUNNY     82  63  51 CALM      30.12S
MOUNT PLEASANT SUNNY     80  58  47 W8        30.11S
MUSKEGON       MOSUNNY   74  58  57 NW6       30.14S
SOUTH HAVEN    SUNNY     75  63  66 N3        30.14S
$$
MIZ016>042-262300-
NORTHERN LOWER MICHIGAN

CITY           SKY/WX    TMP DP  RH WIND       PRES   REMARKS
ALPENA         PTSUNNY   72  60  66 E7        30.12R
BEAVER ISLAND  MOSUNNY   70  59  67 W10       30.13S
BELLAIRE       MOSUNNY   72  56  57 NW3       30.13F
CADILLAC       SUNNY     75  54  48 W8        30.13S
CHARLEVOIX     PTSUNNY   70  58  65 W10       30.17S
FRANKFORT      PTSUNNY   71  57  61 CALM      30.15R
GAYLORD        MOSUNNY   72  51  47 NW8       30.14S
GRAYLING       MOSUNNY   76  56  49 W9        30.14S
HARBOR SPRINGS MOSUNNY   70  59  68 W7        30.13S
HOUGHTON LAKE  SUNNY     77  55  46 W8        30.13S
MANISTEE       MOSUNNY   70  56  61 W8        30.14S
OSCODA         MOSUNNY   81  56  43 NW13      30.08S
PELLSTON       SUNNY     72  56  57 W9        30.13R
ROGERS CITY    MOSUNNY   73  62  68 N6        30.13R
TRAVERSE CITY  PTSUNNY   75  52  44 W8        30.12S
$$
MIZ007>008-015-262300-
EASTERN UPPER MICHIGAN

CITY           SKY/WX    TMP DP  RH WIND       PRES   REMARKS
KINROSS        CLOUDY    66  56  70 N12       30.13R
MACKINAC ISLAN PTSUNNY   69  59  69 W10       30.12R
NEWBERRY       MOSUNNY   68  57  68 N6        30.13R
S. S. MARIE    SUNNY     70  56  61 NW13      30.12R
MUNISING         N/A     67  57  70 E3        30.13S
$$
MIZ004>006-011>014-085-262300-
CENTRAL UPPER MICHIGAN

CITY           SKY/WX    TMP DP  RH WIND       PRES   REMARKS
MANISTIQUE     CLOUDY    69  59  71 NW8       30.12S
ESCANABA       CLOUDY    71  59  65 NE3       30.12R
MENOMINEE      PTSUNNY  N/A N/A N/A W5        30.13R
SAWYER-GWINN   PTSUNNY   64  55  72 NE5       30.15S
$$
MIZ001>003-009>011-084-262300-
WESTERN UPPER MICHIGAN

CITY           SKY/WX    TMP DP  RH WIND       PRES   REMARKS
IRON MOUNTAIN  PTSUNNY   71  50  47 NW5       30.13S
HOUGHTON       PTSUNNY   63  51  65 NW9       30.15R
COPPER HARBOR    N/A     63  55  75 N8        30.14R
IRONWOOD       MOSUNNY   67  47  48 N3        30.17S
$$

ABBREVIATIONS USED IN REMARKS
   TC - TEMPERATURE IN CELSIUS
  WCI - WIND CHILL INDEX
   HX - HEAT INDEX
  VSB - VISIBILITY





USA.gov is the U.S. government's official web portal to all federal, state and local government web resources and services.